QPF
0.00 0.00 0.00 0.00 0.01 0.02 0.02 0.00 0.00 0.00 0.00 0.00 0.00 0.00 0.00 0.00 0.01 0.02 0.00 0.00 0.00 0.00 0.00 0.00 0.00 0.00 0.00 0.00 0.00 0.00 0.00 0.00 0.00 0.00 0.00 0.00 0.00 0.00 0.00 0.00 0.00 0.00 0.00 0.00 0.00 0.00 0.00 0.00 0.00
0.00 0.00 0.01 0.01 0.02 0.03 0.01 0.00 0.00 0.00 0.00 0.00 0.00 0.00 0.00 0.00 0.00 0.00 0.00 0.00 0.00 0.00 0.00 0.00 0.00 0.00 0.00 0.00 0.00 0.00 0.00 0.00 0.00 0.00 0.00 0.00 0.00 0.00 0.00 0.00 0.00 0.00 0.00 0.00 0.00 0.00 0.00 0.00 0.00
0.00 0.00 0.00 0.00 0.02 0.02 0.01 0.00 0.00 0.00 0.00 0.00 0.00 0.00 0.00 0.00 0.00 0.00 0.00 0.00 0.00 0.00 0.00 0.00 0.00 0.00 0.00 0.00 0.00 0.00 0.00 0.00 0.00 0.00 0.00 0.00 0.00 0.00 0.00 0.00 0.00 0.00 0.00 0.00 0.00 0.00 0.00 0.00 0.00
0.00 0.00 0.00 0.01 0.02 0.01 0.00 0.00 0.00 0.00 0.00 0.00 0.00 0.00 0.00 0.00 0.00 0.00 0.00 0.00 0.00 0.00 0.00 0.00 0.00 0.00 0.00 0.00 0.00 0.00 0.00 0.00 0.00 0.00 0.00 0.00 0.00 0.00 0.00 0.00 0.00 0.00 0.00 0.00 0.00 0.00 0.00 0.00 0.00
0.00 0.00 0.00 0.01 0.02 0.01 0.00 0.00 0.00 0.00 0.00 0.00 0.00 0.00 0.00 0.00 0.00 0.00 0.00 0.00 0.00 0.00 0.00 0.00 0.00 0.00 0.00 0.00 0.00 0.00 0.00 0.00 0.00 0.00 0.00 0.00 0.00 0.00 0.00 0.00 0.00 0.00 0.00 0.00 0.00 0.00 0.00 0.00 0.00
0.00 0.00 0.00 0.01 0.02 0.01 0.01 0.00 0.00 0.00 0.00 0.00 0.00 0.00 0.00 0.00 0.00 0.00 0.00 0.00 0.00 0.00 0.00 0.00 0.00 0.00 0.00 0.00 0.00 0.00 0.00 0.00 0.00 0.00 0.00 0.00 0.00 0.00 0.00 0.00 0.00 0.00 0.00 0.00 0.00 0.00 0.00 0.00 0.00
0.00 0.00 0.00 0.01 0.01 0.03 0.01 0.00 0.00 0.00 0.00 0.00 0.00 0.00 0.00 0.00 0.00 0.00 0.00 0.00 0.00 0.00 0.00 0.00 0.00 0.00 0.00 0.00 0.00 0.00 0.00 0.00 0.00 0.00 0.00 0.00 0.00 0.00 0.00 0.00 0.00 0.00 0.00 0.01 0.01 0.01 0.01 0.01 0.01
0.00 0.00 0.00 0.00 0.01 0.01 0.01 0.00 0.00 0.00 0.00 0.00 0.00 0.00 0.00 0.00 0.00 0.00 0.00 0.00 0.00 0.00 0.00 0.00 0.00 0.00 0.00 0.00 0.00 0.00 0.00 0.00 0.00 0.00 0.00 0.00 0.00 0.00 0.01 0.01 0.00 0.00 0.01 0.01 0.01 0.01 0.01 0.01 0.01
0.00 0.00 0.00 0.00 0.00 0.01 0.00 0.00 0.00 0.00 0.00 0.00 0.00 0.00 0.00 0.00 0.00 0.00 0.00 0.00 0.00 0.00 0.00 0.00 0.00 0.00 0.00 0.00 0.00 0.00 0.00 0.00 0.00 0.01 0.01 0.00 0.01 0.03 0.05 0.07 0.07 0.04 0.03 0.01 0.01 0.01 0.01 0.01 0.00
0.00 0.00 0.00 0.00 0.00 0.00 0.00 0.00 0.00 0.01 0.01 0.01 0.01 0.01 0.00 0.00 0.00 0.00 0.00 0.00 0.00 0.00 0.00 0.00 0.00 0.00 0.00 0.00 0.01 0.00 0.01 0.02 0.02 0.03 0.06 0.07 0.08 0.06 0.02 0.07 0.07 0.05 0.04 0.02 0.01 0.02 0.01 0.01 0.01
0.00 0.00 0.00 0.00 0.00 0.00 0.00 0.00 0.00 0.01 0.03 0.04 0.05 0.06 0.01 0.01 0.00 0.00 0.00 0.00 0.00 0.00 0.00 0.00 0.00 0.00 0.00 0.00 0.00 0.00 0.01 0.03 0.03 0.03 0.07 0.07 0.06 0.04 0.01 0.01 0.05 0.09 0.07 0.05 0.06 0.06 0.04 0.03 0.04
0.00 0.00 0.00 0.00 0.00 0.00 0.00 0.00 0.01 0.01 0.01 0.04 0.07 0.06 0.01 0.01 0.01 0.00 0.00 0.00 0.00 0.00 0.00 0.00 0.00 0.00 0.00 0.00 0.00 0.00 0.00 0.01 0.01 0.03 0.03 0.06 0.07 0.04 0.03 0.03 0.03 0.07 0.09 0.14 0.12 0.13 0.09 0.07 0.06
0.00 0.00 0.00 0.00 0.00 0.00 0.00 0.00 0.02 0.02 0.01 0.03 0.06 0.03 0.01 0.00 0.00 0.00 0.00 0.00 0.00 0.00 0.00 0.00 0.00 0.00 0.00 0.00 0.00 0.00 0.00 0.01 0.01 0.02 0.02 0.03 0.06 0.06 0.08 0.08 0.07 0.05 0.07 0.12 0.12 0.08 0.12 0.12 0.10
0.00 0.00 0.00 0.00 0.00 0.00 0.00 0.00 0.00 0.01 0.00 0.01 0.03 0.03 0.01 0.00 0.00 0.00 0.00 0.02 0.02 0.00 0.00 0.00 0.00 0.00 0.00 0.00 0.00 0.01 0.00 0.01 0.01 0.02 0.03 0.03 0.07 0.11 0.11 0.12 0.13 0.12 0.13 0.13 0.13 0.13 0.19 0.17 0.15
0.00 0.00 0.00 0.00 0.00 0.00 0.00 0.00 0.00 0.00 0.00 0.00 0.01 0.01 0.01 0.00 0.00 0.00 0.00 0.00 0.01 0.00 0.00 0.00 0.00 0.00 0.00 0.01 0.01 0.01 0.01 0.01 0.03 0.04 0.04 0.05 0.11 0.15 0.13 0.13 0.13 0.16 0.18 0.18 0.16 0.18 0.25 0.18 0.17
0.00 0.00 0.00 0.00 0.00 0.00 0.00 0.00 0.00 0.00 0.00 0.00 0.00 0.00 0.00 0.00 0.00 0.00 0.00 0.00 0.00 0.00 0.00 0.00 0.00 0.00 0.00 0.01 0.01 0.01 0.01 0.02 0.03 0.03 0.03 0.04 0.06 0.07 0.09 0.08 0.10 0.14 0.16 0.19 0.18 0.19 0.23 0.20 0.21
0.00 0.00 0.00 0.00 0.00 0.00 0.00 0.00 0.00 0.00 0.00 0.00 0.00 0.00 0.00 0.00 0.01 0.01 0.01 0.01 0.00 0.00 0.00 0.00 0.01 0.01 0.02 0.03 0.03 0.03 0.02 0.02 0.02 0.02 0.02 0.02 0.02 0.02 0.04 0.04 0.06 0.09 0.10 0.11 0.12 0.21 0.20 0.19 0.24
0.00 0.00 0.00 0.00 0.00 0.00 0.00 0.00 0.00 0.00 0.00 0.00 0.00 0.00 0.00 0.00 0.00 0.01 0.04 0.05 0.02 0.03 0.02 0.03 0.04 0.05 0.05 0.05 0.04 0.03 0.02 0.01 0.01 0.01 0.01 0.01 0.01 0.01 0.01 0.02 0.03 0.04 0.05 0.06 0.08 0.10 0.12 0.14 0.18
0.00 0.00 0.00 0.00 0.00 0.00 0.00 0.00 0.00 0.00 0.00 0.01 0.02 0.01 0.02 0.01 0.02 0.06 0.10 0.07 0.06 0.11 0.08 0.06 0.06 0.07 0.06 0.04 0.03 0.03 0.02 0.01 0.01 0.00 0.00 0.00 0.00 0.00 0.00 0.00 0.00 0.01 0.01 0.02 0.03 0.05 0.06 0.07 0.12
0.00 0.00 0.00 0.00 0.00 0.00 0.00 0.00 0.00 0.00 0.00 0.01 0.02 0.02 0.07 0.08 0.06 0.12 0.11 0.07 0.06 0.10 0.13 0.10 0.07 0.06 0.05 0.04 0.03 0.02 0.01 0.01 0.00 0.00 0.00 0.00 0.00 0.00 0.00 0.00 0.00 0.00 0.00 0.01 0.01 0.03 0.03 0.03 0.07
0.00 0.00 0.00 0.00 0.00 0.00 0.00 0.00 0.00 0.00 0.00 0.01 0.01 0.01 0.03 0.09 0.17 0.16 0.14 0.14 0.11 0.10 0.10 0.08 0.06 0.05 0.05 0.04 0.03 0.02 0.01 0.00 0.00 0.00 0.00 0.00 0.00 0.00 0.00 0.00 0.00 0.00 0.00 0.00 0.01 0.01 0.02 0.03 0.05
0.00 0.00 0.00 0.00 0.00 0.00 0.00 0.00 0.00 0.00 0.02 0.08 0.10 0.07 0.15 0.15 0.12 0.13 0.14 0.16 0.17 0.21 0.19 0.14 0.09 0.07 0.06 0.06 0.05 0.04 0.02 0.01 0.00 0.00 0.00 0.00 0.00 0.00 0.00 0.00 0.00 0.00 0.00 0.00 0.00 0.01 0.02 0.02 0.02
0.00 0.00 0.00 0.00 0.00 0.00 0.00 0.00 0.00 0.00 0.02 0.08 0.08 0.14 0.22 0.14 0.08 0.13 0.18 0.15 0.14 0.22 0.22 0.21 0.12 0.08 0.06 0.06 0.06 0.06 0.03 0.01 0.00 0.00 0.00 0.00 0.00 0.00 0.00 0.00 0.00 0.00 0.00 0.00 0.00 0.01 0.01 0.02 0.02
0.00 0.00 0.00 0.00 0.01 0.01 0.02 0.02 0.01 0.00 0.02 0.05 0.05 0.08 0.09 0.07 0.07 0.10 0.10 0.11 0.16 0.20 0.16 0.13 0.09 0.08 0.07 0.07 0.07 0.06 0.05 0.03 0.02 0.01 0.01 0.00 0.00 0.00 0.00 0.00 0.00 0.00 0.00 0.00 0.00 0.01 0.01 0.02 0.03
0.00 0.00 0.01 0.03 0.09 0.11 0.07 0.04 0.03 0.02 0.02 0.01 0.02 0.03 0.05 0.06 0.07 0.11 0.09 0.08 0.09 0.10 0.06 0.06 0.10 0.14 0.11 0.08 0.08 0.08 0.07 0.05 0.04 0.04 0.02 0.02 0.01 0.00 0.00 0.00 0.00 0.00 0.00 0.00 0.00 0.01 0.01 0.02 0.03
0.00 0.00 0.00 0.01 0.03 0.03 0.02 0.03 0.04 0.03 0.01 0.00 0.01 0.01 0.03 0.05 0.06 0.08 0.09 0.08 0.07 0.05 0.05 0.05 0.06 0.08 0.09 0.08 0.09 0.09 0.09 0.07 0.06 0.08 0.05 0.04 0.02 0.01 0.01 0.01 0.01 0.01 0.00 0.00 0.01 0.01 0.01 0.02 0.03
0.00 0.00 0.00 0.00 0.00 0.00 0.01 0.03 0.05 0.08 0.06 0.02 0.01 0.00 0.01 0.03 0.04 0.05 0.06 0.07 0.06 0.05 0.05 0.05 0.06 0.06 0.07 0.07 0.07 0.07 0.08 0.09 0.09 0.09 0.08 0.06 0.05 0.03 0.03 0.03 0.02 0.01 0.01 0.01 0.01 0.01 0.01 0.03 0.04
0.00 0.00 0.00 0.00 0.00 0.00 0.01 0.06 0.11 0.17 0.16 0.05 0.01 0.00 0.00 0.01 0.01 0.02 0.03 0.04 0.05 0.04 0.04 0.04 0.04 0.04 0.04 0.04 0.05 0.05 0.05 0.05 0.07 0.07 0.08 0.08 0.06 0.05 0.04 0.03 0.02 0.02 0.01 0.01 0.01 0.02 0.03 0.04 0.05
0.01 0.00 0.00 0.00 0.00 0.00 0.01 0.06 0.06 0.09 0.07 0.02 0.01 0.00 0.00 0.00 0.00 0.01 0.01 0.02 0.02 0.02 0.03 0.03 0.03 0.03 0.02 0.02 0.03 0.02 0.03 0.03 0.04 0.05 0.06 0.07 0.07 0.07 0.06 0.05 0.03 0.02 0.02 0.02 0.02 0.02 0.03 0.03 0.04
0.00 0.00 0.00 0.00 0.00 0.00 0.02 0.06 0.04 0.04 0.04 0.02 0.01 0.00 0.00 0.00 0.00 0.00 0.00 0.00 0.00 0.01 0.01 0.01 0.01 0.01 0.01 0.01 0.01 0.01 0.01 0.01 0.02 0.03 0.03 0.05 0.06 0.07 0.07 0.06 0.04 0.03 0.02 0.03 0.02 0.02 0.02 0.03 0.04
MSLP
1006.52 1007.20 1007.87 1008.37 1008.57 1008.40 1007.87 1007.08 1006.20 1005.40 1004.85 1004.62 1004.73 1005.12 1005.65 1006.20 1006.65 1006.93 1007.05 1007.09 1007.14 1007.31 1007.66 1008.20 1008.89 1009.65 1010.36 1010.94 1011.35 1011.58 1011.68 1011.74 1011.83 1012.02 1012.32 1012.72 1013.17 1013.60 1013.95 1014.19 1014.32 1014.37 1014.38 1014.41 1014.48 1014.61 1014.77 1014.94 1015.08
1006.67 1007.40 1008.06 1008.49 1008.58 1008.27 1007.61 1006.71 1005.75 1004.90 1004.33 1004.10 1004.22 1004.60 1005.12 1005.65 1006.08 1006.36 1006.53 1006.65 1006.82 1007.13 1007.64 1008.32 1009.12 1009.94 1010.67 1011.24 1011.60 1011.77 1011.83 1011.86 1011.95 1012.15 1012.47 1012.89 1013.34 1013.75 1014.06 1014.26 1014.34 1014.36 1014.35 1014.38 1014.47 1014.61 1014.80 1014.98 1015.13
1006.90 1007.64 1008.27 1008.62 1008.58 1008.14 1007.35 1006.36 1005.34 1004.47 1003.90 1003.68 1003.81 1004.18 1004.68 1005.17 1005.58 1005.86 1006.05 1006.24 1006.52 1006.96 1007.60 1008.41 1009.31 1010.19 1010.94 1011.49 1011.83 1011.98 1012.02 1012.04 1012.14 1012.35 1012.68 1013.09 1013.51 1013.87 1014.13 1014.26 1014.29 1014.27 1014.25 1014.29 1014.41 1014.59 1014.82 1015.03 1015.18
1007.14 1007.88 1008.43 1008.68 1008.52 1007.96 1007.08 1006.03 1004.99 1004.14 1003.60 1003.42 1003.56 1003.92 1004.39 1004.84 1005.21 1005.46 1005.66 1005.89 1006.24 1006.78 1007.52 1008.42 1009.39 1010.32 1011.09 1011.65 1011.98 1012.14 1012.19 1012.23 1012.35 1012.58 1012.91 1013.29 1013.67 1013.97 1014.15 1014.21 1014.18 1014.13 1014.12 1014.18 1014.34 1014.57 1014.84 1015.08 1015.24
1007.34 1008.01 1008.48 1008.60 1008.33 1007.68 1006.75 1005.69 1004.69 1003.91 1003.45 1003.33 1003.51 1003.88 1004.31 1004.71 1005.01 1005.22 1005.39 1005.62 1006.00 1006.59 1007.38 1008.34 1009.35 1010.30 1011.09 1011.66 1012.02 1012.19 1012.28 1012.36 1012.51 1012.77 1013.10 1013.46 1013.78 1014.01 1014.11 1014.10 1014.03 1013.96 1013.95 1014.05 1014.25 1014.54 1014.85 1015.12 1015.29
1007.44 1008.00 1008.34 1008.34 1007.97 1007.26 1006.33 1005.32 1004.42 1003.76 1003.43 1003.41 1003.66 1004.04 1004.45 1004.79 1005.02 1005.15 1005.27 1005.46 1005.82 1006.41 1007.21 1008.17 1009.19 1010.14 1010.93 1011.51 1011.89 1012.10 1012.23 1012.37 1012.56 1012.84 1013.17 1013.51 1013.79 1013.95 1013.99 1013.93 1013.82 1013.74 1013.74 1013.87 1014.13 1014.46 1014.80 1015.09 1015.26
1007.40 1007.83 1008.01 1007.88 1007.42 1006.69 1005.80 1004.90 1004.15 1003.67 1003.51 1003.63 1003.97 1004.40 1004.80 1005.09 1005.24 1005.29 1005.32 1005.45 1005.75 1006.28 1007.04 1007.96 1008.94 1009.86 1010.63 1011.21 1011.59 1011.84 1012.01 1012.19 1012.44 1012.74 1013.08 1013.40 1013.64 1013.76 1013.76 1013.65 1013.52 1013.44 1013.46 1013.62 1013.91 1014.27 1014.64 1014.93 1015.08
1007.28 1007.53 1007.54 1007.28 1006.75 1006.01 1005.20 1004.45 1003.89 1003.61 1003.65 1003.94 1004.39 1004.88 1005.29 1005.55 1005.64 1005.61 1005.55 1005.58 1005.80 1006.25 1006.92 1007.76 1008.66 1009.52 1010.24 1010.79 1011.17 1011.42 1011.63 1011.84 1012.12 1012.44 1012.79 1013.10 1013.32 1013.42 1013.39 1013.27 1013.13 1013.05 1013.09 1013.27 1013.57 1013.94 1014.31 1014.59 1014.72
1007.11 1007.17 1007.02 1006.63 1006.03 1005.31 1004.59 1003.99 1003.63 1003.58 1003.82 1004.28 1004.86 1005.42 1005.86 1006.10 1006.14 1006.04 1005.90 1005.85 1005.97 1006.32 1006.88 1007.61 1008.41 1009.17 1009.82 1010.31 1010.66 1010.90 1011.11 1011.34 1011.63 1011.97 1012.32 1012.63 1012.84 1012.93 1012.90 1012.78 1012.65 1012.58 1012.63 1012.81 1013.11 1013.47 1013.81 1014.06 1014.17
1006.96 1006.86 1006.54 1006.04 1005.39 1004.69 1004.05 1003.60 1003.42 1003.56 1003.98 1004.59 1005.28 1005.91 1006.37 1006.61 1006.62 1006.48 1006.28 1006.16 1006.19 1006.44 1006.90 1007.51 1008.20 1008.85 1009.41 1009.83 1010.13 1010.34 1010.53 1010.75 1011.04 1011.37 1011.72 1012.04 1012.26 1012.36 1012.35 1012.25 1012.14 1012.08 1012.12 1012.29 1012.56 1012.88 1013.18 1013.40 1013.47
1006.91 1006.65 1006.20 1005.60 1004.90 1004.22 1003.66 1003.32 1003.28 1003.55 1004.10 1004.81 1005.57 1006.24 1006.72 1006.96 1006.96 1006.79 1006.56 1006.39 1006.36 1006.54 1006.91 1007.42 1008.01 1008.57 1009.04 1009.39 1009.63 1009.80 1009.96 1010.15 1010.42 1010.74 1011.09 1011.41 1011.65 1011.78 1011.80 1011.74 1011.65 1011.60 1011.63 1011.77 1011.99 1012.25 1012.50 1012.67 1012.71
1006.96 1006.59 1006.04 1005.36 1004.63 1003.95 1003.44 1003.17 1003.20 1003.54 1004.14 1004.88 1005.65 1006.32 1006.78 1007.01 1007.00 1006.82 1006.59 1006.41 1006.36 1006.50 1006.82 1007.28 1007.80 1008.29 1008.70 1009.00 1009.20 1009.33 1009.46 1009.62 1009.86 1010.17 1010.51 1010.84 1011.10 1011.28 1011.34 1011.32 1011.27 1011.22 1011.24 1011.32 1011.48 1011.67 1011.85 1011.97 1011.98
1007.10 1006.65 1006.03 1005.30 1004.56 1003.89 1003.38 1003.13 1003.17 1003.51 1004.06 1004.76 1005.46 1006.06 1006.48 1006.67 1006.65 1006.48 1006.27 1006.10 1006.07 1006.22 1006.54 1006.99 1007.50 1007.98 1008.38 1008.67 1008.85 1008.97 1009.07 1009.21 1009.43 1009.71 1010.05 1010.39 1010.68 1010.90 1011.02 1011.05 1011.03 1010.99 1010.98 1011.02 1011.10 1011.21 1011.31 1011.37 1011.36
1007.27 1006.78 1006.13 1005.39 1004.65 1003.97 1003.47 1003.19 1003.17 1003.42 1003.86 1004.41 1004.98 1005.46 1005.78 1005.91 1005.87 1005.72 1005.54 1005.43 1005.46 1005.66 1006.03 1006.53 1007.08 1007.61 1008.05 1008.37 1008.58 1008.71 1008.82 1008.95 1009.15 1009.42 1009.75 1010.10 1010.42 1010.69 1010.86 1010.95 1010.96 1010.93 1010.90 1010.88 1010.89 1010.91 1010.93 1010.93 1010.89
1007.41 1006.91 1006.27 1005.55 1004.82 1004.16 1003.64 1003.31 1003.19 1003.28 1003.54 1003.90 1004.28 1004.59 1004.78 1004.84 1004.77 1004.63 1004.50 1004.47 1004.58 1004.87 1005.32 1005.90 1006.54 1007.15 1007.68 1008.08 1008.36 1008.54 1008.68 1008.82 1009.01 1009.27 1009.59 1009.95 1010.30 1010.60 1010.83 1010.96 1011.01 1011.00 1010.95 1010.89 1010.82 1010.77 1010.71 1010.65 1010.57
1007.46 1006.98 1006.38 1005.71 1005.04 1004.41 1003.87 1003.47 1003.23 1003.15 1003.20 1003.33 1003.48 1003.60 1003.65 1003.62 1003.52 1003.40 1003.33 1003.37 1003.58 1003.96 1004.52 1005.20 1005.95 1006.66 1007.29 1007.80 1008.17 1008.42 1008.60 1008.77 1008.96 1009.21 1009.52 1009.88 1010.25 1010.58 1010.86 1011.04 1011.13 1011.14 1011.08 1010.99 1010.87 1010.74 1010.62 1010.50 1010.39
1007.44 1006.99 1006.46 1005.88 1005.29 1004.71 1004.18 1003.73 1003.37 1003.10 1002.93 1002.83 1002.76 1002.70 1002.61 1002.50 1002.38 1002.29 1002.27 1002.39 1002.68 1003.15 1003.79 1004.56 1005.39 1006.20 1006.93 1007.53 1007.99 1008.32 1008.55 1008.74 1008.93 1009.17 1009.47 1009.82 1010.19 1010.56 1010.87 1011.10 1011.23 1011.27 1011.22 1011.11 1010.96 1010.78 1010.61 1010.44 1010.29
1007.36 1006.97 1006.55 1006.09 1005.61 1005.12 1004.62 1004.13 1003.66 1003.24 1002.88 1002.56 1002.30 1002.08 1001.88 1001.72 1001.59 1001.53 1001.58 1001.76 1002.10 1002.63 1003.32 1004.13 1005.00 1005.86 1006.64 1007.31 1007.82 1008.20 1008.47 1008.68 1008.87 1009.10 1009.37 1009.71 1010.08 1010.46 1010.80 1011.07 1011.25 1011.33 1011.31 1011.20 1011.04 1010.84 1010.63 1010.43 1010.25
1007.28 1006.99 1006.70 1006.40 1006.07 1005.69 1005.25 1004.75 1004.21 1003.66 1003.13 1002.66 1002.24 1001.90 1001.64 1001.46 1001.35 1001.34 1001.44 1001.66 1002.04 1002.57 1003.24 1004.02 1004.87 1005.71 1006.48 1007.15 1007.68 1008.08 1008.36 1008.56 1008.74 1008.94 1009.19 1009.50 1009.86 1010.25 1010.61 1010.93 1011.16 1011.28 1011.30 1011.23 1011.08 1010.88 1010.66 1010.44 1010.23
1007.27 1007.12 1007.00 1006.88 1006.72 1006.47 1006.11 1005.63 1005.05 1004.41 1003.77 1003.17 1002.66 1002.26 1001.97 1001.81 1001.75 1001.79 1001.94 1002.19 1002.56 1003.04 1003.64 1004.32 1005.05 1005.79 1006.49 1007.09 1007.58 1007.95 1008.21 1008.40 1008.55 1008.72 1008.94 1009.22 1009.56 1009.93 1010.32 1010.66 1010.94 1011.12 1011.20 1011.17 1011.06 1010.88 1010.67 1010.45 1010.23
1007.38 1007.39 1007.46 1007.55 1007.57 1007.48 1007.21 1006.77 1006.17 1005.48 1004.76 1004.09 1003.52 1003.10 1002.84 1002.72 1002.73 1002.85 1003.04 1003.30 1003.62 1004.02 1004.48 1005.00 1005.56 1006.13 1006.68 1007.16 1007.56 1007.86 1008.07 1008.22 1008.33 1008.46 1008.64 1008.89 1009.20 1009.56 1009.95 1010.32 1010.64 1010.87 1011.01 1011.04 1010.98 1010.85 1010.66 1010.45 1010.23
1007.61 1007.80 1008.08 1008.38 1008.59 1008.64 1008.47 1008.08 1007.49 1006.77 1006.01 1005.30 1004.72 1004.32 1004.10 1004.05 1004.14 1004.33 1004.56 1004.81 1005.08 1005.36 1005.65 1005.97 1006.32 1006.68 1007.03 1007.36 1007.63 1007.84 1007.98 1008.08 1008.16 1008.25 1008.39 1008.59 1008.87 1009.20 1009.58 1009.96 1010.30 1010.57 1010.76 1010.85 1010.84 1010.76 1010.61 1010.43 1010.22
1007.90 1008.28 1008.77 1009.26 1009.65 1009.84 1009.78 1009.44 1008.87 1008.14 1007.36 1006.65 1006.07 1005.70 1005.54 1005.57 1005.74 1005.99 1006.25 1006.50 1006.70 1006.85 1006.98 1007.10 1007.23 1007.37 1007.53 1007.69 1007.83 1007.94 1008.01 1008.06 1008.10 1008.15 1008.24 1008.40 1008.63 1008.92 1009.26 1009.62 1009.96 1010.25 1010.47 1010.61 1010.65 1010.61 1010.50 1010.34 1010.14
1008.20 1008.75 1009.41 1010.08 1010.62 1010.94 1010.96 1010.68 1010.15 1009.43 1008.66 1007.95 1007.40 1007.07 1006.96 1007.06 1007.29 1007.59 1007.89 1008.12 1008.26 1008.31 1008.30 1008.24 1008.18 1008.13 1008.12 1008.13 1008.16 1008.19 1008.21 1008.21 1008.21 1008.22 1008.27 1008.37 1008.53 1008.76 1009.04 1009.35 1009.66 1009.93 1010.16 1010.31 1010.38 1010.37 1010.28 1010.14 1009.96
1008.42 1009.10 1009.90 1010.70 1011.36 1011.78 1011.90 1011.69 1011.20 1010.52 1009.78 1009.10 1008.58 1008.28 1008.21 1008.35 1008.63 1008.97 1009.28 1009.50 1009.60 1009.58 1009.47 1009.28 1009.09 1008.91 1008.77 1008.68 1008.63 1008.60 1008.58 1008.55 1008.52 1008.49 1008.49 1008.52 1008.60 1008.74 1008.93 1009.15 1009.39 1009.62 1009.81 1009.95 1010.01 1010.01 1009.94 1009.80 1009.62
1008.52 1009.27 1010.15 1011.03 1011.78 1012.29 1012.49 1012.37 1011.95 1011.34 1010.66 1010.02 1009.53 1009.26 1009.22 1009.38 1009.68 1010.03 1010.34 1010.56 1010.64 1010.58 1010.41 1010.17 1009.90 1009.65 1009.45 1009.31 1009.21 1009.16 1009.12 1009.07 1009.01 1008.95 1008.88 1008.83 1008.81 1008.84 1008.91 1009.03 1009.16 1009.30 1009.43 1009.52 1009.55 1009.53 1009.45 1009.30 1009.12
1008.49 1009.25 1010.15 1011.07 1011.87 1012.45 1012.74 1012.71 1012.40 1011.89 1011.29 1010.72 1010.28 1010.03 1010.00 1010.15 1010.44 1010.77 1011.08 1011.28 1011.36 1011.30 1011.12 1010.87 1010.59 1010.33 1010.12 1009.97 1009.87 1009.81 1009.77 1009.71 1009.62 1009.51 1009.38 1009.25 1009.12 1009.02 1008.96 1008.94 1008.95 1008.98 1009.01 1009.03 1009.01 1008.95 1008.83 1008.67 1008.46
1008.38 1009.09 1009.95 1010.86 1011.68 1012.32 1012.70 1012.79 1012.61 1012.22 1011.74 1011.26 1010.87 1010.65 1010.61 1010.73 1010.98 1011.28 1011.55 1011.74 1011.81 1011.77 1011.62 1011.40 1011.16 1010.93 1010.75 1010.62 1010.54 1010.49 1010.44 1010.37 1010.26 1010.10 1009.90 1009.68 1009.44 1009.22 1009.03 1008.87 1008.75 1008.66 1008.58 1008.51 1008.42 1008.30 1008.15 1007.96 1007.72
1008.28 1008.89 1009.67 1010.52 1011.34 1012.02 1012.49 1012.70 1012.67 1012.43 1012.08 1011.71 1011.39 1011.18 1011.12 1011.20 1011.38 1011.61 1011.83 1012.00 1012.07 1012.04 1011.92 1011.75 1011.56 1011.39 1011.25 1011.16 1011.10 1011.06 1011.01 1010.92 1010.79 1010.59 1010.33 1010.03 1009.71 1009.38 1009.06 1008.78 1008.54 1008.34 1008.16 1008.00 1007.85 1007.68 1007.48 1007.26 1007.01
1008.27 1008.76 1009.44 1010.22 1011.00 1011.70 1012.24 1012.57 1012.68 1012.60 1012.39 1012.12 1011.87 1011.68 1011.59 1011.61 1011.71 1011.85 1012.00 1012.11 1012.16 1012.14 1012.06 1011.93 1011.80 1011.67 1011.57 1011.50 1011.45 1011.41 1011.35 1011.26 1011.10 1010.87 1010.57 1010.22 1009.83 1009.43 1009.03 1008.66 1008.33 1008.04 1007.78 1007.55 1007.34 1007.13 1006.91 1006.67 1006.41
Thickness
5864 5866 5866 5861 5843 5835 5842 5864 5874 5872 5875 5887 5889 5885 5869 5857 5846 5833 5866 5878 5869 5855 5845 5839 5834 5829 5825 5821 5817 5814 5810 5806 5803 5800 5797 5794 5791 5788 5785 5782 5780 5778 5775 5773 5771 5769 5767 5765 5763
5869 5874 5868 5854 5829 5819 5841 5867 5867 5872 5884 5893 5890 5885 5871 5860 5868 5865 5871 5873 5865 5853 5844 5839 5832 5828 5824 5820 5816 5812 5809 5805 5802 5799 5796 5793 5790 5787 5784 5782 5779 5777 5774 5772 5770 5768 5767 5765 5763
5871 5876 5860 5850 5831 5824 5844 5870 5874 5883 5893 5890 5881 5879 5868 5859 5869 5869 5872 5873 5863 5852 5845 5837 5831 5826 5822 5818 5814 5810 5807 5804 5801 5797 5794 5792 5789 5786 5784 5781 5778 5776 5774 5772 5770 5768 5766 5765 5763
5874 5873 5862 5847 5838 5854 5867 5878 5887 5884 5887 5893 5884 5867 5865 5874 5876 5874 5876 5872 5861 5852 5844 5834 5829 5824 5820 5816 5812 5808 5805 5802 5799 5796 5793 5790 5787 5785 5783 5780 5778 5776 5774 5772 5770 5768 5766 5764 5763
5877 5863 5852 5844 5846 5864 5880 5890 5891 5878 5879 5885 5879 5858 5853 5872 5880 5877 5875 5870 5861 5854 5843 5833 5827 5822 5818 5814 5810 5806 5803 5800 5797 5794 5791 5788 5786 5783 5781 5779 5777 5775 5773 5771 5770 5768 5766 5765 5763
5862 5864 5846 5841 5844 5861 5878 5891 5890 5878 5877 5883 5876 5858 5853 5871 5872 5872 5874 5870 5866 5855 5843 5831 5826 5821 5816 5812 5808 5804 5801 5798 5795 5792 5790 5787 5784 5782 5780 5778 5776 5774 5773 5771 5769 5768 5767 5765 5764
5853 5850 5846 5854 5850 5854 5872 5893 5886 5878 5877 5879 5883 5858 5853 5864 5870 5874 5871 5871 5867 5857 5842 5831 5825 5819 5814 5810 5806 5803 5800 5796 5793 5791 5788 5785 5783 5780 5778 5777 5775 5774 5772 5771 5769 5768 5767 5766 5764
5867 5852 5848 5861 5858 5859 5878 5890 5893 5885 5874 5892 5891 5859 5848 5861 5872 5871 5868 5868 5862 5853 5842 5833 5826 5820 5814 5809 5805 5802 5798 5795 5792 5789 5787 5784 5782 5780 5778 5777 5775 5773 5772 5771 5769 5768 5766 5765 5764
5867 5841 5840 5859 5859 5861 5879 5882 5891 5894 5879 5883 5888 5878 5871 5872 5870 5862 5858 5858 5853 5849 5842 5836 5828 5822 5817 5812 5807 5801 5798 5794 5791 5788 5786 5783 5781 5781 5780 5778 5776 5773 5771 5770 5769 5767 5766 5765 5764
5856 5834 5851 5874 5875 5869 5875 5880 5885 5878 5866 5864 5867 5868 5870 5868 5863 5854 5850 5847 5844 5842 5841 5838 5831 5824 5820 5818 5809 5803 5799 5795 5790 5790 5787 5783 5781 5781 5782 5781 5777 5774 5772 5769 5768 5766 5764 5763 5763
5853 5843 5861 5874 5882 5880 5877 5881 5887 5872 5846 5841 5837 5837 5851 5859 5856 5851 5849 5847 5843 5841 5839 5838 5831 5826 5822 5818 5809 5807 5803 5799 5792 5790 5787 5784 5781 5780 5781 5780 5777 5773 5770 5767 5766 5764 5762 5762 5763
5849 5853 5862 5867 5877 5873 5872 5876 5876 5870 5857 5862 5853 5844 5846 5852 5849 5849 5848 5846 5842 5838 5837 5836 5831 5824 5820 5817 5812 5807 5804 5799 5795 5792 5787 5785 5780 5778 5777 5776 5774 5771 5769 5767 5766 5764 5763 5762 5763
5843 5848 5859 5866 5869 5870 5870 5868 5870 5869 5871 5869 5861 5853 5849 5853 5853 5854 5852 5848 5841 5835 5834 5833 5828 5821 5815 5811 5806 5804 5801 5798 5794 5789 5785 5782 5778 5774 5772 5770 5768 5767 5766 5766 5764 5763 5762 5760 5759
5838 5844 5851 5859 5862 5866 5861 5862 5866 5868 5874 5864 5854 5848 5851 5855 5856 5853 5848 5843 5837 5834 5832 5830 5824 5818 5811 5805 5800 5798 5796 5793 5790 5786 5782 5778 5774 5770 5767 5764 5762 5762 5761 5761 5760 5758 5756 5755 5754
5839 5829 5833 5845 5855 5862 5860 5847 5858 5875 5872 5858 5855 5853 5852 5857 5856 5852 5848 5843 5838 5834 5832 5826 5819 5814 5806 5801 5796 5795 5792 5790 5786 5782 5778 5774 5770 5766 5763 5760 5758 5758 5757 5757 5756 5755 5753 5751 5750
5825 5815 5810 5838 5856 5864 5848 5828 5859 5875 5867 5854 5853 5854 5853 5853 5852 5851 5848 5842 5839 5833 5827 5822 5817 5810 5803 5797 5793 5791 5789 5785 5781 5778 5775 5771 5766 5763 5760 5757 5756 5755 5754 5753 5752 5751 5748 5746 5745
5807 5801 5809 5834 5861 5861 5846 5833 5857 5866 5860 5851 5850 5852 5850 5846 5846 5845 5844 5839 5835 5829 5822 5816 5811 5804 5798 5792 5788 5785 5783 5779 5776 5774 5771 5766 5762 5759 5757 5754 5753 5753 5751 5750 5749 5748 5745 5741 5740
5802 5816 5823 5831 5851 5845 5832 5834 5850 5855 5849 5845 5846 5847 5844 5838 5836 5840 5837 5832 5828 5822 5815 5808 5802 5797 5791 5786 5781 5779 5776 5774 5771 5769 5765 5761 5758 5755 5752 5750 5750 5749 5747 5746 5745 5742 5742 5739 5737
5810 5811 5816 5831 5843 5828 5820 5825 5838 5845 5840 5836 5837 5836 5831 5827 5831 5830 5827 5822 5816 5810 5801 5796 5790 5787 5783 5777 5773 5768 5765 5766 5765 5764 5760 5757 5753 5751 5748 5745 5744 5743 5742 5741 5740 5738 5736 5735 5735
5805 5801 5808 5821 5832 5822 5813 5816 5832 5837 5835 5831 5829 5824 5818 5814 5812 5812 5809 5808 5803 5797 5792 5785 5780 5778 5774 5770 5766 5763 5761 5761 5761 5758 5756 5752 5749 5746 5745 5741 5738 5738 5736 5735 5735 5734 5730 5730 5730
5801 5799 5801 5802 5812 5818 5809 5803 5817 5829 5829 5824 5819 5814 5808 5803 5796 5795 5791 5790 5789 5784 5781 5778 5773 5769 5766 5763 5759 5757 5755 5753 5751 5750 5749 5747 5745 5742 5739 5737 5735 5733 5732 5731 5730 5728 5725 5722 5723
5785 5800 5799 5796 5788 5787 5799 5779 5804 5812 5805 5798 5791 5790 5788 5785 5785 5782 5778 5775 5772 5772 5769 5765 5763 5760 5757 5755 5751 5746 5743 5740 5742 5743 5742 5741 5739 5738 5736 5734 5731 5729 5727 5726 5726 5725 5721 5718 5716
5792 5803 5797 5793 5785 5780 5788 5776 5791 5801 5782 5774 5771 5770 5768 5766 5771 5767 5761 5760 5761 5761 5756 5753 5751 5750 5750 5747 5744 5740 5736 5735 5737 5736 5735 5733 5733 5733 5733 5731 5728 5725 5723 5722 5720 5718 5716 5714 5712
5803 5797 5793 5788 5771 5744 5748 5744 5757 5778 5772 5766 5761 5758 5755 5757 5757 5754 5751 5751 5749 5746 5743 5740 5738 5737 5738 5737 5735 5730 5728 5727 5725 5723 5723 5724 5726 5727 5728 5726 5722 5719 5718 5716 5715 5713 5712 5711 5709
5792 5774 5754 5739 5713 5707 5727 5731 5742 5765 5768 5764 5757 5754 5750 5748 5745 5740 5736 5734 5732 5728 5726 5727 5726 5723 5723 5724 5722 5720 5719 5718 5716 5714 5715 5715 5716 5717 5719 5718 5715 5713 5712 5711 5710 5709 5708 5708 5706
5785 5777 5751 5731 5728 5732 5732 5731 5739 5760 5758 5757 5753 5748 5744 5738 5733 5729 5724 5721 5717 5714 5712 5711 5709 5707 5708 5708 5707 5707 5707 5706 5705 5705 5705 5705 5706 5708 5709 5709 5708 5707 5706 5706 5705 5704 5704 5705 5704
5780 5778 5786 5765 5762 5756 5757 5742 5739 5744 5740 5741 5740 5738 5732 5728 5723 5719 5714 5710 5707 5703 5700 5697 5694 5692 5691 5691 5691 5692 5691 5691 5691 5691 5693 5694 5695 5697 5698 5699 5699 5699 5699 5699 5699 5699 5699 5700 5700
5795 5788 5777 5759 5738 5734 5752 5738 5721 5721 5719 5723 5726 5724 5720 5718 5714 5709 5704 5700 5696 5692 5689 5686 5682 5679 5677 5676 5674 5674 5673 5674 5675 5676 5676 5679 5681 5683 5685 5687 5689 5690 5692 5693 5693 5693 5695 5695 5696
5777 5778 5773 5763 5754 5733 5726 5723 5736 5723 5721 5719 5717 5714 5709 5705 5701 5697 5693 5689 5685 5681 5676 5672 5668 5665 5662 5660 5658 5657 5656 5657 5657 5658 5660 5662 5665 5669 5672 5674 5677 5680 5683 5685 5686 5687 5688 5689 5690
5776 5773 5767 5744 5739 5741 5731 5713 5733 5724 5718 5712 5706 5701 5696 5691 5687 5683 5678 5674 5669 5664 5659 5655 5651 5648 5645 5643 5641 5639 5639 5638 5638 5640 5642 5645 5648 5653 5657 5662 5665 5670 5674 5676 5678 5679 5681 5682 5683